Simultaneous Nadir Overpasses (SNOs) Predictions

Prediction of SNOs between NOAA-19 and TERRA Satellite Orbit:

Table of predicted SNOs for the next 14.0 days since TLE Epoch: 6/11/2016
Index Date (NOAA-19) Time (NOAA-19) Lat,Lon (NOAA-19) SZA (NOAA-19 ) Date (TERRA) Time (TERRA) Lat,Lon (TERRA) SZA (TERRA ) Distance(km) Time Diff (sec)
1 06/12/2016 20:25:46 73.78,-119.41 50.63 06/12/2016 20:26:43 73.78,-119.50 50.63 2.64 57
2 06/12/2016 21:16:42 -73.70, 48.06 129.46 06/12/2016 21:16:12 -73.71, 47.98 129.45 3.05 30
3 06/15/2016 01:59:47 -73.82, -22.95 129.45 06/15/2016 02:00:28 -73.82, -22.85 129.44 3.02 41
4 06/15/2016 02:50:50 73.73, 144.49 50.47 06/15/2016 02:49:55 73.74, 144.61 50.47 3.62 55
5 06/17/2016 07:33:54 73.79, 73.64 50.45 06/17/2016 07:34:12 73.79, 73.64 50.45 0.35 18
6 06/17/2016 08:24:49 -73.70,-118.87 129.64 06/17/2016 08:23:41 -73.72,-118.87 129.63 2.33 68
7 06/19/2016 12:17:12 74.52, 1.00 51.07 06/19/2016 12:18:17 74.45, 4.09 51.12 92.18 65
8 06/19/2016 13:07:53 -73.78, 170.22 129.61 06/19/2016 13:07:58 -73.76, 170.15 129.62 2.71 5
9 06/21/2016 17:51:01 -74.05, 98.81 129.37 06/21/2016 17:52:12 -73.96, 99.51 129.42 23.71 71
10 06/21/2016 18:42:01 73.76, -93.23 50.38 06/21/2016 18:41:41 73.76, -93.28 50.37 1.69 20
11 06/23/2016 23:25:05 73.83,-164.11 50.47 06/23/2016 23:25:57 73.85,-164.17 50.48 2.46 52
12 06/24/2016 00:16:00 -73.80, 3.25 129.57 06/24/2016 00:15:26 -73.79, 3.33 129.58 2.69 34




NCC Satellite Simultaneous Nadir Overpasses (SNOs) Prediction Service
